Temperature
17 16 16 16 16 16 16 16 16 16 16 16 16 16 16 16 16 16 16 16 15 15 15 15 15 15 15 15 15 15 16 16 16 16 16 16 16 16 16 16 16 16 16
17 17 16 16 16 16 16 16 16 16 16 16 16 16 16 16 16 16 16 15 15 15 15 15 15 15 15 15 15 15 15 15 15 15 16 16 16 15 15 15 15 15 15
17 16 16 16 16 16 16 16 16 16 16 16 16 16 15 15 15 15 15 15 15 15 15 15 15 15 15 15 15 15 15 15 15 15 15 15 15 15 15 15 15 15 15
17 16 16 16 16 16 16 16 16 16 16 16 15 15 15 15 15 15 15 15 15 15 15 15 15 15 14 14 15 15 15 15 15 15 15 15 15 15 15 14 14 14 15
17 16 16 16 16 16 16 16 16 16 16 15 15 15 15 15 15 15 15 15 15 15 15 14 14 14 14 14 14 14 14 14 14 14 14 14 14 14 14 14 14 14 14
16 16 16 16 16 16 16 16 16 16 15 15 15 15 15 15 15 15 15 14 14 14 14 14 14 14 14 14 14 14 14 14 14 14 14 14 14 14 14 14 14 14 14
16 16 16 16 16 16 16 16 16 16 15 15 15 15 15 15 15 14 14 14 14 14 14 14 14 14 14 14 14 14 14 14 13 13 13 13 13 13 13 13 13 13 13
16 16 16 16 16 16 16 16 16 15 15 15 15 15 15 14 14 14 14 14 14 14 14 14 14 14 14 14 14 14 14 14 13 13 13 13 13 13 13 13 13 13 13
16 16 16 16 16 16 16 16 15 15 15 15 15 15 15 14 14 14 14 14 14 14 14 14 14 14 14 14 14 13 13 13 13 13 13 13 13 13 13 13 13 13 13
16 16 16 16 16 16 16 15 15 15 15 15 15 15 15 15 14 14 14 14 14 14 14 14 14 13 13 13 13 13 13 13 13 13 13 13 13 13 12 12 12 12 12
16 16 16 16 15 15 15 15 15 15 15 15 15 15 15 15 15 14 13 13 13 13 13 13 13 13 13 13 13 13 13 13 13 13 13 12 12 12 12 12 12 12 12
15 15 16 15 15 15 15 15 15 15 15 15 15 15 15 15 15 14 14 13 13 13 13 13 13 13 13 13 13 13 13 13 13 12 12 12 12 12 12 12 12 12 12
15 15 15 15 15 15 15 15 15 15 15 15 15 15 15 15 15 14 14 14 13 13 13 13 12 12 12 12 12 12 12 12 12 12 12 12 12 12 12 12 11 11 11
15 15 15 15 15 15 15 15 15 15 15 15 15 15 15 15 15 14 14 14 13 13 12 12 12 12 12 12 12 12 12 12 12 12 12 12 12 12 11 11 11 11 11
15 15 15 15 15 15 15 15 15 15 15 15 15 15 15 15 14 14 14 14 14 13 12 12 12 12 12 12 12 12 12 11 12 12 11 11 11 11 11 11 11 11 11
15 15 15 15 15 15 15 14 14 14 14 14 14 14 14 14 14 14 14 14 13 13 13 12 12 12 11 11 11 11 11 11 11 11 11 11 11 11 11 11 10 10 10
15 15 15 15 15 15 15 14 14 14 14 14 14 14 14 14 14 14 14 13 13 13 13 12 12 11 11 11 11 11 11 11 11 11 11 11 10 10 10 10 10 10 10
15 15 15 15 15 15 15 14 14 14 14 14 14 14 14 14 14 14 13 13 13 13 13 12 12 11 11 11 11 11 11 11 10 10 10 10 10 10 10 10 10 9 9
15 15 15 15 15 15 15 14 14 14 14 14 14 14 14 14 14 13 13 13 13 13 13 12 12 11 11 11 11 11 11 10 10 10 10 10 10 9 9 9 9 9 9
15 15 15 15 15 14 14 14 14 14 14 14 14 14 13 13 13 13 13 13 13 13 12 12 12 11 11 11 11 11 10 10 10 10 10 9 9 9 9 9 9 8 8
15 15 15 14 14 14 14 14 14 14 14 14 14 13 13 13 13 13 13 13 13 12 12 12 12 11 11 11 10 10 10 10 10 9 9 9 9 9 9 8 8 8 8
15 15 15 14 14 14 14 14 14 14 13 13 13 13 13 13 13 13 13 12 12 12 12 12 11 11 11 10 10 10 10 10 9 9 9 9 9 8 8 8 8 8 8
15 14 14 14 14 14 14 14 14 13 13 13 13 13 13 13 12 12 12 12 12 11 11 11 11 11 10 10 10 10 9 9 9 9 9 9 9 8 8 8 8 7 7
14 14 14 14 14 14 14 14 13 13 13 13 13 13 12 12 12 12 12 12 11 11 11 11 10 10 10 10 9 9 9 9 9 8 8 8 8 8 8 8 7 7 7
14 14 14 14 14 14 13 13 13 13 13 13 12 12 12 12 12 12 12 11 11 11 10 10 10 10 10 9 9 9 9 9 8 8 8 8 8 7 8 7 7 7 6
14 14 14 14 14 13 13 13 13 13 13 13 12 12 12 12 12 11 11 11 11 11 10 10 10 10 9 9 9 9 8 8 8 8 7 7 7 6 6 7 6 6 6
Wind_Speed
3 2 1 2 2 2 2 2 4 4 5 5 6 7 6 7 7 7 7 10 10 10 10 10 10 9 9 8 8 8 7 7 7 7 7 7 6 6 6 6 6 7 7
4 3 2 2 2 3 4 5 5 5 4 5 5 6 6 6 6 6 7 8 10 10 10 10 10 10 9 9 9 8 8 8 7 7 7 8 7 7 6 6 7 7 7
6 4 3 2 2 5 6 6 6 5 4 4 5 4 5 5 5 5 6 6 7 9 10 10 10 10 9 9 9 9 8 8 8 8 8 8 8 7 7 7 7 8 8
7 5 3 2 4 6 5 4 4 4 4 4 3 3 3 4 4 5 5 5 5 6 8 10 10 10 10 9 9 9 9 9 9 9 8 8 8 8 8 8 8 9 9
7 6 4 3 5 5 3 4 3 3 3 3 3 3 3 3 3 4 4 4 5 6 6 8 9 10 10 10 10 10 10 10 10 9 9 8 8 8 8 8 8 9 9
6 7 4 4 5 4 3 3 4 3 2 2 3 4 3 3 3 3 3 4 5 5 6 6 7 7 9 10 10 10 10 10 10 9 9 9 9 9 9 9 8 8 8
6 6 4 3 4 4 3 3 3 4 3 2 4 3 4 4 3 3 3 3 4 5 6 6 6 6 7 9 10 10 10 10 10 9 9 9 9 9 8 9 8 8 9
5 6 5 3 3 4 4 4 3 3 2 2 3 3 3 4 4 3 3 3 3 4 5 6 6 6 7 8 10 11 10 10 10 10 9 9 9 8 8 8 8 8 8
5 6 5 4 3 4 4 3 4 4 2 2 2 3 3 1 1 4 3 3 3 3 3 5 6 6 6 7 8 10 10 10 10 10 10 9 9 9 9 9 10 9 9
5 5 6 5 3 3 4 3 3 3 4 2 1 2 2 3 2 1 3 3 3 3 3 4 5 6 6 7 7 9 10 11 11 11 11 11 10 10 10 9 9 9 9
3 4 6 5 4 3 4 4 4 3 3 3 2 1 3 2 2 3 0 2 3 3 2 3 4 5 6 6 6 7 9 10 10 11 11 11 11 11 10 10 9 9 9
1 2 5 5 4 3 3 4 4 4 3 3 3 2 2 2 1 2 2 0 1 2 3 3 3 4 4 5 5 7 7 8 8 9 10 10 11 11 11 11 10 10 9
1 1 3 3 3 3 4 4 4 4 4 4 3 2 2 2 2 3 3 1 1 1 2 2 2 2 3 4 4 5 6 6 7 7 8 9 10 10 10 11 10 10 10
3 2 3 3 3 4 4 4 4 3 3 3 3 2 2 1 2 3 3 3 2 2 3 2 2 2 2 3 3 5 6 6 6 6 7 7 8 9 9 9 9 9 9
3 4 4 4 4 4 4 4 3 3 3 3 3 3 2 1 1 1 2 3 4 2 1 2 2 2 1 3 3 4 5 5 5 6 6 6 7 7 7 8 8 8 8
3 5 4 4 4 4 5 4 3 3 4 2 2 3 2 1 2 2 2 2 2 3 2 1 1 1 2 3 3 3 3 4 5 5 5 5 6 6 6 7 7 8 8
5 5 5 4 4 4 4 4 3 3 4 3 2 3 2 2 2 2 2 2 2 3 3 1 2 2 3 2 3 3 2 2 3 4 4 5 4 4 6 7 7 7 7
5 5 5 5 4 4 4 5 4 4 4 3 2 3 2 2 2 2 2 2 2 2 3 2 1 2 2 1 2 2 2 2 2 2 3 4 4 4 5 6 6 7 6
5 5 5 5 5 4 4 4 5 4 4 3 3 3 2 3 2 2 3 3 2 3 3 3 1 1 1 2 2 2 3 3 3 3 4 4 4 4 4 5 5 6 5
6 5 5 5 5 5 5 5 5 4 4 3 3 3 2 3 3 3 3 3 3 4 4 3 2 2 1 1 2 2 2 2 2 3 4 4 4 4 4 5 5 5 5
6 6 6 5 5 5 4 5 5 5 5 4 3 2 3 4 4 4 4 4 4 4 3 3 2 2 1 1 1 0 1 2 2 2 2 3 3 3 4 5 4 4 5
5 6 6 5 5 4 6 8 7 5 5 4 3 2 3 3 5 6 6 6 6 5 4 3 2 1 1 1 0 1 1 1 2 2 1 2 2 2 4 4 4 4 4
5 5 5 5 5 5 8 8 8 6 5 4 4 3 3 3 4 3 5 6 4 4 5 5 3 2 2 2 1 1 1 1 2 2 0 2 2 3 4 5 5 4 5
5 5 5 5 5 5 7 9 9 6 5 4 4 4 4 2 3 4 4 4 3 2 3 3 3 3 2 2 3 2 2 1 1 2 1 1 3 3 5 5 5 5 6
5 4 5 5 5 4 7 9 9 5 5 4 3 3 4 3 4 6 5 4 3 2 4 4 4 3 3 2 3 2 2 2 1 3 1 0 2 3 3 3 5 7 7
5 5 4 4 5 5 7 9 9 5 5 3 2 2 4 4 5 6 5 4 3 0 1 3 4 4 5 5 4 2 2 1 0 2 2 0 2 2 3 3 4 6 6
Wind_Direction
147 150 139 115 99 97 103 92 91 91 88 91 94 95 89 86 81 72 62 62 63 66 70 68 70 67 67 66 64 61 62 63 61 62 61 59 59 59 56 49 41 37 32
135 131 119 110 104 100 104 103 96 96 88 89 85 85 85 86 83 76 68 62 62 64 67 66 66 64 63 65 63 62 61 60 61 60 61 59 57 56 51 47 39 32 28
127 126 117 109 107 100 96 93 86 82 84 83 76 75 81 86 85 82 78 70 65 64 64 64 64 63 62 62 60 59 61 58 60 61 63 60 57 55 53 48 42 38 35
124 116 105 102 108 104 100 91 87 80 74 74 66 59 66 77 83 84 80 78 75 68 63 62 62 60 58 60 59 59 61 60 60 62 65 63 57 53 53 51 47 44 40
115 111 102 107 108 95 89 99 87 100 96 86 85 66 49 54 68 80 74 74 79 79 69 62 61 56 54 57 60 60 61 61 60 62 64 63 59 54 53 53 49 47 43
113 112 107 106 105 95 82 90 95 88 102 103 89 62 37 40 55 62 66 70 75 79 73 66 58 50 52 54 57 57 56 57 57 61 62 61 59 53 50 50 48 47 47
111 111 108 98 100 105 108 109 104 84 68 91 81 48 24 30 38 37 57 67 71 75 77 71 61 55 51 50 49 51 51 51 54 58 59 59 56 52 50 47 47 44 46
113 121 120 120 117 107 96 95 101 97 69 84 117 97 39 7 7 15 29 61 67 73 73 72 71 62 59 53 47 48 48 50 52 53 54 55 52 49 48 46 46 47 49
106 117 119 121 131 121 121 116 121 121 113 45 91 134 135 193 329 352 16 33 55 70 68 72 70 65 64 60 51 47 47 47 48 48 50 53 52 50 48 48 48 47 48
107 117 122 122 127 125 126 130 123 126 125 109 36 63 128 151 143 4 352 4 32 56 61 70 72 69 68 65 58 54 53 50 48 47 48 50 52 49 47 47 48 49 47
98 121 130 127 125 127 128 119 109 108 120 132 124 101 82 73 98 139 171 347 12 18 46 65 74 73 72 71 65 62 60 55 50 46 46 46 47 46 44 43 43 44 45
60 98 121 123 125 128 130 125 118 115 115 110 106 108 124 119 131 130 152 216 19 354 19 40 59 71 78 75 71 70 66 61 55 49 49 45 42 41 39 39 39 39 41
145 148 115 118 124 133 134 125 114 110 117 115 113 110 114 141 156 141 139 148 82 352 22 17 27 61 79 79 71 70 66 65 60 54 52 48 43 39 38 37 36 37 40
183 170 140 133 130 129 124 116 111 113 111 111 107 113 107 111 136 147 151 143 97 23 18 344 350 25 70 83 80 73 65 64 60 55 51 50 47 43 39 37 36 36 38
176 158 143 136 128 126 123 119 117 124 116 111 117 113 101 93 117 125 138 148 145 141 334 320 342 326 87 91 88 80 72 61 59 55 53 53 49 44 40 40 40 39 39
162 151 149 144 139 136 131 126 123 128 116 113 122 104 88 92 91 92 120 111 128 147 166 300 322 310 91 94 86 90 79 61 52 53 52 53 47 42 37 37 41 41 41
164 156 156 150 144 142 137 128 129 118 117 108 105 109 95 90 98 95 92 90 93 114 137 4 23 39 67 73 62 72 64 58 43 40 48 47 42 40 40 37 40 42 39
165 159 151 147 146 139 136 135 136 130 127 120 111 103 93 92 87 91 93 90 95 109 136 130 34 36 52 84 79 72 46 35 38 35 35 36 43 44 37 38 37 35 33
152 148 142 144 139 134 130 132 134 134 130 127 126 122 120 110 91 91 96 94 88 92 101 121 86 32 37 50 47 35 35 23 25 39 35 31 32 29 27 26 25 26 25
150 145 139 141 139 135 131 128 123 125 120 115 119 121 123 130 137 129 117 119 109 97 94 102 89 46 28 5 53 35 9 354 358 21 18 18 14 12 6 4 6 12 18
151 145 137 136 133 133 143 140 133 131 125 114 101 102 111 118 125 127 131 134 125 114 107 100 91 61 29 24 359 314 5 345 342 1 351 353 357 354 345 341 343 351 359
143 139 140 142 138 149 153 151 143 137 137 133 124 109 97 88 96 99 118 126 134 136 140 128 120 124 239 257 290 64 72 36 325 322 11 326 355 314 322 327 328 341 346
143 140 145 142 143 152 154 151 149 141 136 140 140 134 123 99 88 91 93 89 91 119 141 146 147 186 197 218 164 106 140 173 252 283 26 310 318 308 315 321 326 327 331
143 146 150 151 146 154 150 147 141 127 122 125 131 136 132 124 118 115 106 89 73 67 113 132 160 193 196 190 177 175 185 176 309 323 64 283 307 303 315 321 325 321 321
144 146 149 149 148 153 147 144 135 126 120 118 122 128 136 140 140 124 112 106 81 38 71 95 109 101 80 80 106 93 72 72 336 306 323 220 297 308 307 303 323 325 320
150 147 143 153 158 160 154 147 139 132 129 129 116 122 136 139 138 133 129 126 121 74 60 63 56 52 56 53 62 99 148 134 217 290 299 319 309 340 325 305 316 328 328
Height
1556 1556 1557 1557 1558 1558 1558 1558 1558 1558 1558 1558 1558 1557 1557 1556 1556 1555 1554 1553 1552 1551 1550 1549 1548 1547 1546 1545 1545 1544 1544 1543 1543 1542 1542 1542 1541 1541 1541 1540 1540 1539 1538
1556 1557 1558 1558 1558 1559 1558 1558 1559 1559 1559 1559 1559 1558 1558 1558 1557 1556 1555 1554 1553 1552 1551 1550 1549 1548 1547 1546 1545 1544 1544 1543 1543 1542 1542 1541 1541 1541 1540 1540 1540 1539 1538
1557 1558 1558 1558 1559 1559 1559 1559 1560 1560 1560 1560 1560 1559 1559 1559 1558 1557 1556 1555 1554 1553 1552 1551 1550 1549 1548 1547 1546 1545 1544 1544 1543 1542 1542 1541 1541 1541 1540 1540 1539 1539 1538
1558 1558 1558 1559 1559 1560 1560 1560 1560 1560 1561 1561 1560 1560 1560 1560 1559 1558 1557 1556 1555 1554 1553 1552 1551 1549 1548 1547 1546 1546 1545 1544 1543 1543 1542 1542 1541 1541 1540 1540 1539 1539 1538
1558 1558 1559 1559 1560 1560 1560 1561 1561 1561 1561 1561 1561 1561 1561 1561 1560 1559 1558 1557 1556 1555 1554 1553 1552 1551 1550 1548 1547 1547 1546 1545 1544 1543 1543 1542 1541 1541 1540 1540 1539 1538 1538
1558 1559 1559 1559 1560 1560 1560 1561 1561 1562 1562 1562 1562 1562 1562 1562 1561 1560 1559 1558 1557 1556 1555 1554 1553 1552 1551 1550 1549 1548 1547 1546 1545 1544 1543 1543 1542 1541 1541 1540 1539 1538 1538
1558 1559 1559 1559 1560 1560 1560 1561 1561 1562 1562 1562 1562 1562 1563 1562 1562 1561 1560 1559 1558 1557 1556 1555 1554 1553 1552 1551 1550 1549 1548 1547 1546 1545 1544 1543 1543 1542 1541 1540 1539 1538 1538
1558 1558 1559 1559 1560 1560 1561 1561 1561 1561 1562 1562 1563 1562 1563 1564 1562 1562 1561 1560 1559 1558 1557 1556 1556 1554 1553 1552 1551 1550 1549 1548 1547 1546 1545 1544 1543 1543 1542 1541 1540 1539 1538
1558 1558 1559 1559 1560 1560 1560 1561 1561 1561 1562 1562 1562 1563 1563 1562 1563 1563 1562 1561 1560 1559 1558 1558 1556 1555 1554 1553 1552 1551 1550 1549 1548 1547 1546 1545 1544 1543 1542 1541 1540 1539 1538
1558 1558 1559 1559 1560 1560 1560 1560 1561 1561 1562 1562 1562 1562 1563 1562 1562 1563 1563 1561 1561 1560 1559 1558 1557 1556 1555 1554 1553 1552 1551 1550 1549 1548 1547 1546 1545 1544 1543 1541 1540 1539 1538
1557 1558 1558 1559 1559 1559 1560 1560 1561 1561 1561 1562 1562 1562 1562 1562 1562 1562 1561 1562 1561 1560 1560 1559 1558 1557 1556 1555 1554 1553 1552 1551 1550 1549 1547 1546 1545 1544 1543 1542 1541 1539 1538
1556 1557 1558 1558 1559 1559 1559 1560 1560 1561 1561 1561 1562 1562 1562 1562 1561 1561 1561 1561 1560 1560 1560 1559 1558 1557 1556 1555 1554 1553 1552 1551 1550 1549 1548 1546 1545 1544 1543 1542 1540 1539 1538
1555 1556 1557 1558 1558 1559 1559 1560 1560 1560 1561 1561 1561 1562 1562 1561 1561 1561 1561 1560 1560 1560 1560 1559 1558 1557 1556 1555 1554 1553 1552 1551 1550 1549 1548 1546 1545 1544 1543 1541 1540 1539 1538
1554 1555 1556 1557 1558 1558 1559 1559 1560 1560 1561 1561 1561 1561 1561 1561 1561 1560 1560 1560 1559 1559 1559 1559 1558 1557 1556 1555 1554 1553 1553 1552 1550 1549 1548 1546 1545 1544 1542 1541 1540 1538 1537
1553 1554 1555 1556 1557 1557 1558 1559 1559 1560 1560 1560 1561 1561 1560 1560 1560 1560 1560 1559 1559 1558 1558 1557 1557 1556 1555 1555 1554 1553 1552 1551 1550 1549 1548 1546 1545 1543 1542 1540 1539 1537 1536
1552 1553 1554 1555 1556 1557 1558 1558 1559 1559 1559 1560 1560 1560 1560 1560 1559 1559 1559 1559 1558 1558 1557 1557 1556 1554 1554 1554 1554 1553 1552 1551 1550 1549 1548 1546 1545 1543 1541 1540 1538 1537 1535
1551 1552 1553 1554 1555 1556 1557 1557 1558 1558 1559 1559 1559 1559 1559 1559 1559 1559 1558 1558 1558 1557 1556 1556 1556 1555 1554 1554 1553 1553 1552 1551 1550 1549 1547 1546 1544 1543 1541 1539 1537 1536 1534
1550 1551 1552 1553 1554 1555 1556 1557 1557 1558 1558 1558 1558 1558 1558 1558 1558 1558 1557 1557 1557 1556 1556 1555 1555 1555 1554 1554 1553 1552 1551 1550 1549 1548 1547 1545 1544 1542 1540 1539 1536 1534 1532
1549 1550 1551 1552 1553 1554 1555 1556 1556 1557 1557 1557 1558 1558 1558 1558 1557 1557 1557 1557 1556 1556 1556 1555 1554 1554 1554 1554 1553 1552 1551 1550 1549 1547 1546 1545 1543 1542 1540 1538 1536 1533 1530
1547 1548 1549 1551 1552 1553 1554 1554 1555 1556 1556 1557 1557 1557 1557 1557 1557 1557 1556 1556 1556 1555 1555 1555 1554 1554 1553 1553 1552 1551 1550 1549 1548 1547 1546 1544 1543 1541 1539 1537 1535 1532 1530
1546 1547 1548 1550 1551 1552 1553 1554 1554 1555 1555 1556 1556 1556 1556 1556 1556 1556 1556 1555 1555 1555 1554 1554 1554 1553 1553 1552 1551 1550 1549 1548 1547 1546 1545 1543 1542 1540 1538 1536 1534 1532 1530
1544 1546 1547 1548 1549 1550 1552 1553 1554 1554 1555 1555 1555 1555 1555 1556 1555 1555 1555 1555 1555 1554 1553 1553 1553 1552 1552 1552 1551 1550 1548 1547 1546 1546 1544 1542 1541 1539 1537 1535 1533 1531 1529
1542 1544 1545 1547 1548 1549 1550 1552 1553 1553 1554 1554 1554 1554 1555 1555 1555 1555 1554 1554 1553 1553 1553 1553 1552 1552 1551 1551 1550 1549 1548 1546 1545 1544 1542 1540 1539 1537 1535 1533 1532 1530 1528
1540 1542 1543 1545 1546 1547 1549 1550 1551 1552 1552 1553 1553 1554 1554 1554 1554 1554 1553 1553 1553 1552 1552 1551 1551 1551 1550 1550 1549 1548 1547 1545 1544 1543 1541 1538 1537 1535 1534 1532 1530 1528 1527
1538 1540 1542 1543 1545 1546 1547 1548 1549 1550 1551 1551 1552 1552 1553 1553 1553 1553 1552 1552 1552 1551 1551 1551 1550 1550 1549 1548 1547 1546 1545 1544 1542 1540 1539 1537 1535 1533 1531 1529 1528 1526 1524
1536 1538 1540 1541 1543 1544 1545 1546 1548 1548 1549 1550 1550 1551 1551 1551 1551 1551 1551 1551 1550 1550 1550 1549 1549 1548 1547 1547 1546 1544 1543 1542 1540 1538 1537 1535 1533 1531 1528 1527 1525 1524 1522